{"data":{"norad_id":62018,"epoch":"2026-05-25T01:59:34.256832Z","epoch_age_seconds":67114,"freshness":"FRESH","line1":"1 62018U 24213L   26145.08303538  .00192788  00000+0  15553-2 0  9992","line2":"2 62018  53.1578  24.6714 0000846  75.9688 284.1424 15.69774482 86915","mean_motion":15.69774482,"eccentricity":8.46e-5,"inclination_deg":53.1578,"raan_deg":24.6714,"arg_perigee_deg":75.9688,"mean_anomaly_deg":284.1424,"bstar":0.0015553,"rev_number":8691,"period_min":91.732921926807,"perigee_km":358.97222627142,"apogee_km":360.11224159781,"semimajor_km":6737.6792339346,"source":"CELESTRAK","updated_at":"2026-05-25T13:38:19.520583Z"}}